• In Spain
  • List of Countries
  • For 7 days
  • Water Temperature
  • Satellite Maps
  • Weather Map
  • Weather Widgets
  • user-avatar
    Login

    Hourly Weather Sequeira

    Today, 23 November, Thursday

    Time Temperature Precipitation Wind Pressure Humidity
    00:00 +8°C° 0 mm 4 mps 685 mmHg 69%
    01:00 +8°C° 0 mm 4 mps 685 mmHg 72%
    02:00 +8°C° 0 mm 4 mps 685 mmHg 74%
    03:00 +9°C° 0 mm 3 mps 685 mmHg 76%
    04:00 +9°C° 0 mm 3 mps 685 mmHg 78%
    05:00 +9°C° 0 mm 3 mps 685 mmHg 80%
    06:00 +9°C° 0 mm 3 mps 685 mmHg 84%
    07:00 +9°C° 0.1 mm 3 mps 686 mmHg 83%
    08:00 +9°C° 0.1 mm 3 mps 686 mmHg 82%
    09:00 +10°C° 0.1 mm 4 mps 687 mmHg 81%
    10:00 +11°C° 0 mm 4 mps 687 mmHg 77%
    11:00 +11°C° 0 mm 4 mps 688 mmHg 74%
    12:00 +12°C° 0 mm 4 mps 688 mmHg 70%
    13:00 +12°C° 0 mm 4 mps 688 mmHg 69%
    14:00 +12°C° 0 mm 4 mps 688 mmHg 67%
    15:00 +12°C° 0 mm 4 mps 687 mmHg 66%
    16:00 +12°C° 0.1 mm 4 mps 687 mmHg 68%
    17:00 +11°C° 0.1 mm 3 mps 687 mmHg 71%
    18:00 +10°C° 0.1 mm 3 mps 687 mmHg 74%
    19:00 +10°C° 0.5 mm 3 mps 687 mmHg 75%
    20:00 +10°C° 0.5 mm 4 mps 687 mmHg 76%
    21:00 +10°C° 0.5 mm 4 mps 688 mmHg 77%
    22:00 +10°C° 0.1 mm 4 mps 687 mmHg 79%
    23:00 +10°C° 0.1 mm 4 mps 687 mmHg 80%

    Tomorrow, 24 November, Friday

    Time Temperature Precipitation Wind Pressure Humidity
    00:00 +10°C° 0.1 mm 4 mps 687 mmHg 82%
    01:00 +10°C° 0.1 mm 4 mps 687 mmHg 86%
    02:00 +10°C° 0.1 mm 4 mps 687 mmHg 89%
    03:00 +10°C° 0.1 mm 3 mps 687 mmHg 92%
    04:00 +10°C° 0 mm 3 mps 688 mmHg 93%
    05:00 +10°C° 0 mm 3 mps 688 mmHg 94%
    06:00 +9°C° 0 mm 3 mps 688 mmHg 95%
    07:00 +10°C° 0.1 mm 3 mps 688 mmHg 94%
    08:00 +10°C° 0.1 mm 3 mps 688 mmHg 93%
    09:00 +10°C° 0.1 mm 3 mps 689 mmHg 92%
    10:00 +11°C° 0.4 mm 3 mps 689 mmHg 89%
    11:00 +11°C° 0.4 mm 3 mps 689 mmHg 87%
    12:00 +12°C° 0.4 mm 3 mps 689 mmHg 85%
    13:00 +12°C° 0.4 mm 3 mps 689 mmHg 84%
    14:00 +12°C° 0.4 mm 3 mps 688 mmHg 83%
    15:00 +13°C° 0.4 mm 4 mps 688 mmHg 82%
    16:00 +12°C° 0.2 mm 3 mps 688 mmHg 84%
    17:00 +11°C° 0.2 mm 3 mps 688 mmHg 87%
    18:00 +12°C° 0.2 mm 2 mps 688 mmHg 89%
    19:00 +10°C° 0.1 mm 2 mps 688 mmHg 90%
    20:00 +10°C° 0.1 mm 2 mps 688 mmHg 91%
    21:00 +10°C° 0.1 mm 2 mps 689 mmHg 92%
    22:00 +10°C° 0 mm 2 mps 689 mmHg 93%
    23:00 +9°C° 0 mm 2 mps 689 mmHg 93%

    Day after tomorrow, 25 November, Saturday

    Time Temperature Precipitation Wind Pressure Humidity
    00:00 +9°C° 0 mm 2 mps 689 mmHg 94%
    01:00 +10°C° 0.1 mm 1 mps 689 mmHg 95%
    02:00 +10°C° 0.1 mm 1 mps 689 mmHg 95%
    03:00 +10°C° 0.1 mm 1 mps 690 mmHg 96%
    04:00 +10°C° 0.1 mm 1 mps 690 mmHg 96%
    05:00 +10°C° 0.1 mm 1 mps 689 mmHg 96%
    06:00 +10°C° 0.1 mm 1 mps 689 mmHg 96%
    07:00 +10°C° 0 mm 1 mps 690 mmHg 95%
    08:00 +11°C° 0 mm 1 mps 690 mmHg 93%
    09:00 +11°C° 0 mm 1 mps 691 mmHg 91%
    10:00 +12°C° 0 mm 1 mps 691 mmHg 87%
    11:00 +13°C° 0 mm 1 mps 691 mmHg 82%
    12:00 +14°C° 0 mm 1 mps 692 mmHg 78%
    13:00 +14°C° 0.1 mm 1 mps 691 mmHg 78%
    14:00 +14°C° 0.1 mm 1 mps 691 mmHg 78%
    15:00 +14°C° 0.1 mm 1 mps 691 mmHg 78%
    16:00 +13°C° 0.3 mm 1 mps 691 mmHg 81%
    17:00 +12°C° 0.3 mm 1 mps 691 mmHg 84%
    18:00 +11°C° 0.3 mm 1 mps 691 mmHg 87%
    19:00 +11°C° 0.2 mm 1 mps 692 mmHg 88%
    20:00 +11°C° 0.2 mm 1 mps 692 mmHg 88%
    21:00 +10°C° 0.2 mm 1 mps 692 mmHg 89%
    22:00 +10°C° 0.1 mm 1 mps 692 mmHg 88%
    23:00 +10°C° 0.1 mm 1 mps 692 mmHg 87%

    26 November, Sunday

    Time Temperature Precipitation Wind Pressure Humidity
    00:00 +9°C° 0.1 mm 2 mps 693 mmHg 86%
    01:00 +8°C° 0.1 mm 2 mps 693 mmHg 86%
    02:00 +8°C° 0.1 mm 2 mps 693 mmHg 86%
    03:00 +8°C° 0.1 mm 2 mps 693 mmHg 85%
    04:00 +7°C° 0.2 mm 2 mps 693 mmHg 84%
    05:00 +7°C° 0.2 mm 2 mps 693 mmHg 83%
    06:00 +7°C° 0.2 mm 2 mps 693 mmHg 83%
    07:00 +7°C° 0.1 mm 2 mps 693 mmHg 81%
    08:00 +7°C° 0.1 mm 2 mps 694 mmHg 79%
    09:00 +7°C° 0.1 mm 2 mps 694 mmHg 78%
    10:00 +7°C° 0 mm 2 mps 694 mmHg 77%
    11:00 +8°C° 0 mm 2 mps 694 mmHg 75%
    12:00 +9°C° 0 mm 2 mps 694 mmHg 74%
    13:00 +9°C° 0 mm 2 mps 694 mmHg 72%
    14:00 +11°C° 0 mm 1 mps 694 mmHg 71%
    15:00 +11°C° 0 mm 1 mps 693 mmHg 70%
    16:00 +11°C° 0.2 mm 1 mps 693 mmHg 73%
    17:00 +10°C° 0.2 mm 1 mps 693 mmHg 77%
    18:00 +9°C° 0.2 mm 1 mps 693 mmHg 81%
    19:00 +9°C° 0.4 mm 1 mps 693 mmHg 82%
    20:00 +9°C° 0.4 mm 1 mps 693 mmHg 84%
    21:00 +8°C° 0.4 mm 1 mps 693 mmHg 85%
    22:00 +8°C° 0.2 mm 1 mps 693 mmHg 85%
    23:00 +8°C° 0.2 mm 1 mps 693 mmHg 86%

    27 November, Monday

    Time Temperature Precipitation Wind Pressure Humidity
    00:00 +8°C° 0.2 mm 1 mps 693 mmHg 86%
    01:00 +8°C° 0 mm 1 mps 693 mmHg 86%
    02:00 +8°C° 0 mm 1 mps 692 mmHg 87%
    03:00 +7°C° 0 mm 1 mps 692 mmHg 87%
    04:00 +7°C° 0 mm 1 mps 692 mmHg 88%
    05:00 +7°C° 0 mm 1 mps 692 mmHg 88%
    06:00 +6°C° 0 mm 1 mps 691 mmHg 88%
    07:00 +7°C° 0 mm 1 mps 692 mmHg 86%
    08:00 +8°C° 0 mm 1 mps 692 mmHg 83%
    09:00 +8°C° 0 mm 1 mps 692 mmHg 81%
    10:00 +10°C° 0 mm 1 mps 692 mmHg 75%
    11:00 +11°C° 0 mm 1 mps 692 mmHg 69%
    12:00 +13°C° 0 mm 1 mps 692 mmHg 63%
    13:00 +13°C° 0 mm 1 mps 692 mmHg 62%
    14:00 +14°C° 0 mm 1 mps 691 mmHg 61%
    15:00 +14°C° 0 mm 1 mps 691 mmHg 60%
    16:00 +12°C° 0 mm 1 mps 691 mmHg 66%
    17:00 +10°C° 0 mm 0 mps 690 mmHg 72%
    18:00 +8°C° 0 mm 0 mps 690 mmHg 79%
    19:00 +8°C° 0 mm 0 mps 690 mmHg 80%
    20:00 +8°C° 0 mm 0 mps 690 mmHg 81%
    21:00 +7°C° 0 mm 0 mps 690 mmHg 82%
    22:00 +8°C° 0 mm 1 mps 690 mmHg 83%
    23:00 +8°C° 0 mm 1 mps 689 mmHg 83%

    28 November, Tuesday

    Time Temperature Precipitation Wind Pressure Humidity
    00:00 +8°C° 0 mm 1 mps 689 mmHg 84%
    01:00 +8°C° 0.1 mm 1 mps 689 mmHg 85%
    02:00 +8°C° 0.1 mm 1 mps 689 mmHg 86%
    03:00 +8°C° 0.1 mm 1 mps 688 mmHg 86%
    04:00 +8°C° 0.2 mm 1 mps 688 mmHg 88%
    05:00 +8°C° 0.2 mm 1 mps 688 mmHg 89%
    06:00 +8°C° 0.2 mm 1 mps 687 mmHg 90%
    07:00 +8°C° 0.4 mm 1 mps 687 mmHg 90%
    08:00 +8°C° 0.4 mm 1 mps 687 mmHg 90%
    09:00 +9°C° 0.4 mm 1 mps 687 mmHg 89%
    10:00 +10°C° 0.3 mm 1 mps 687 mmHg 86%
    11:00 +11°C° 0.3 mm 1 mps 687 mmHg 82%
    12:00 +12°C° 0.3 mm 1 mps 686 mmHg 79%
    13:00 +12°C° 0.1 mm 1 mps 686 mmHg 77%
    14:00 +12°C° 0.1 mm 1 mps 685 mmHg 75%
    15:00 +11°C° 0.1 mm 0 mps 684 mmHg 74%
    16:00 +10°C° 0 mm 0 mps 684 mmHg 78%
    17:00 +9°C° 0 mm 0 mps 684 mmHg 83%
    18:00 +8°C° 0 mm 0 mps 684 mmHg 88%
    19:00 +8°C° 0 mm 0 mps 683 mmHg 89%
    20:00 +7°C° 0 mm 0 mps 683 mmHg 91%
    21:00 +6°C° 0 mm 0 mps 683 mmHg 92%
    22:00 +6°C° 0 mm 0 mps 683 mmHg 92%
    23:00 +7°C° 0 mm 1 mps 683 mmHg 93%
    Show more